Regional Weather Roundup
Issued by NWS

Home | Current Version | Previous Version | Graphics & Text | Print | Product List | Glossary On
Versions: 1 2 3 4 5 6 7 8 9 10 11 12 13 14 15 16 17 18 19 20 21 22 23 24 25 26 27 28 29 30 31 32 33 34 35 36 37 38 39 40 41 42 43 44 45 46 47 48 49 50
000
ASUS44 KMEG 132310
RWRTN
TENNESSEE HOURLY STATE WEATHER ROUNDUP
NATIONAL WEATHER SERVICE MEMPHIS TN
500 PM CST WED DEC 13 2017

TNZ002-004-019-021-049-052-054-088>092-140000-
WEST TENNESSEE

CITY           SKY/WX    TMP DP  RH WIND       PRES   REMARKS
MEMPHIS INTL   MOCLDY    56  25  30 SW12G22   29.80S
NWS MEMPHIS      N/A     56 N/A N/A MISG        N/A
JACKSON        CLOUDY    52  26  36 SW14      29.76F
DYERSBURG      CLEAR     52  26  36 SW12      29.75S
SOMERVILLE     PTCLDY    54  25  32 SW12      29.78S
COVINGTON      CLEAR     54  25  32 SW13G18   29.77F
UNION CITY     CLEAR     50  27  40 SW10      29.71F
BOLIVAR        CLEAR     54  23  30 SW10G18   29.78S
PARIS          CLEAR     50  25  37 SW15      29.71R
HUNTINGDON     CLEAR     50  25  37 SW9       29.73R
LEXINGTON      MOCLDY    50  23  34 S8        29.75S
SELMER         CLEAR     52  21  30 SW7       29.78S
SAVANNAH       CLEAR     52  23  32 SW9G15    29.79R
$$

TNZ008-025-027-028-033-062-065-066-140000-
NORTH MIDDLE TENNESSEE

CITY           SKY/WX    TMP DP  RH WIND       PRES   REMARKS
NASHVILLE      PTCLDY    49  17  28 SW9       29.73R
PORTLAND       CLEAR     46  18  31 SW8       29.69R
CLARKSVILLE    CLEAR     50  18  28 SW10      29.70R
SMYRNA         CLEAR     48  18  30 S9G17     29.74S
COOKEVILLE     PTCLDY    43  16  33 SW12G21   29.73R
GALLATIN       MOCLDY    48  18  29 VRB7G17   29.73S
CROSSVILLE     CLEAR     39  12  33 SW8G24    29.71R WCI  33
$$

TNZ061-075-076-078-094-096-097-140000-
SOUTH MIDDLE TENNESSEE

CITY           SKY/WX    TMP DP  RH WIND       PRES   REMARKS
FAYETTEVILLE   CLEAR     46  18  31 SW16      29.78R
TULLAHOMA      CLEAR     45  16  31 S12G17    29.77R
WINCHESTER     CLEAR     45  16  31 SW6       29.79R
MCMINNVILLE    CLEAR     45  16  31 SW8G15    29.75R
COLUMBIA       CLEAR     48  19  32 SW10      29.75R
SHELBYVILLE    CLEAR     45  18  33 SW10G16   29.77R
$$

TNZ017-018-042-046-047-140000-
NORTHEAST TENNESSEE

CITY           SKY/WX    TMP DP  RH WIND       PRES   REMARKS
TRI CITIES     CLOUDY    37  15  40 W7        29.69F WCI  32
ELIZABETHTON   CLOUDY    37  16  41 E5        29.67F WCI  34
$$

TNZ012-013-036-069-073-074-140000-
CENTRAL EAST TENNESSEE

CITY           SKY/WX    TMP DP  RH WIND       PRES   REMARKS
KNOXVILLE      PTCLDY    42  15  33 W17G24    29.71F
OAK RIDGE      CLEAR     42  13  30 SW8G16    29.74F
DOWNTOWN KNOXV PTCLDY    45  12  26 W12G21    29.72F
GATLINBURG     CLOUDY    46   7  19 CALM      29.69F
MORRISTOWN     MOCLDY    43   3  19 W13G18    29.68S
JACKSBORO      CLEAR     39  10  30 S8G17     29.71S WCI  34
$$

TNZ083-085-099-140000-
SOUTHEAST TENNESSEE

CITY           SKY/WX    TMP DP  RH WIND       PRES   REMARKS
CHATTANOOGA    PTCLDY    45  15  30 S13G20    29.81F
DAYTON         CLEAR     45  18  33 S12       29.77S
$$

SKY/WX REPORTED AS FAIR MEANS FEW OR NO CLOUDS BELOW
12 THOUSAND FEET.





USA.gov is the U.S. government's official web portal to all federal, state and local government web resources and services.